STARLINK-34412, 66132

Orbit data source: Space-Track

STARLINK-34412, 66132 is a payload satellite owned by SpaceX/Seattle (US) in LEO that was launched on Wed, 22 Oct 2025 UTC via an FALCON 9 launch vehicle from the Air Force Western Test Range (AFWTR). Payload-class satellites include a variety of spacecraft equipped with specific instruments for various scientific and technological missions. These include communications satellites like Starlink; space stations such as the ISS; scientific satellites like the Hubble; Earth observation satellites from companies like Planet Labs, Umbra, and HawkEye 360; GPS; miniature CubeSats for education and research; and military/defense satellites.

Loading next visibility...
Identifier
66132, 2025-237U
Orbit
LEO
Country
Flag of USUS
Related business
Manufacturer
SpaceX/Seattle
Mission
Operational Commercial Communications
Bus & Motor
STARLINK V2MO, Unknown motor
Mass
575 kg wet, ~530 kg dry
Launch date (UTC)
2025-10-22 (8 months ago)
Launch vehicle
FALCON 9
Launch site
Air Force Western Test Range (AFWTR)
Object type
Payload
Rocket body
Debris
Shape & HBR
Box + 2 Pan, 17.7 m
Radar Cross Section
36.964 m², Large (>1 m²)

Expand to show TLE details & history
Last TLE update: 1 day ago

TLE from 1 day ago
0 STARLINK-34412
1 66132U 25237U   26170.70094028  .00025554  00000-0  76464-3 0  9994
2 66132  53.1599 285.4555 0001310  81.1485 278.9666 15.34409619 38140
Epoch: 2026-06-19T16:49Z
TLE epoch observation values (Epoch: 2026-06-19T16:49:21.240Z)
Latitude
Longitude
125.19086°
Altitude
463.436 km
Speed
7.636 km/s
True Right ascension
19h 01m 49s
True Declination
0° 00' 00"
Sunlit
Object was in full shadow at epoch
Visualization orbit readout
Latitude
Unknown
Longitude
Unknown
Altitude
Unknown
Speed
Unknown
Apparent Right ascension
Unknown
Apparent Declination
Unknown
Sunlit
N/A
Visualization observer readout
Local Sidereal Time
08:42:37
Azimuth
Unknown
Elevation
Unknown
Doppler factor
Unknown
Orbital elements
Apogee altitude
463.828 km
Perigee altitude
462.035 km
Semi-major axis
6,841.069 km
Eccentricity
0.00013
Inclination
53.1599°
RAAN
285.4555°
Arg. of periapsis
81.1485°
True anomaly
278.95177°
Mean anomaly
278.9666°
Eccentric anomaly
278.95919°
Mean motion
3.83581 °/min
Orbital period
93.85 mins
BSTAR
0.00076464
Loading maneuver chart data...
Computing Atmospheric mass density...
Loading historical data...
Loading historical data...
Loading historical data...
Loading historical data...
Loading historical data...
Loading historical data...
Loading historical data...

Documentation

Showing up to 5 results
|